OSCAR 7 (AO-7) 1 07530U 74089B 26168.55533473 -.00000045 00000+0 84729-5 0 9995 2 07530 101.9900 181.8059 0012582 129.4309 352.3115 12.53698122360564 PHASE 3B (AO-10) 1 14129U 83058B 26168.36952042 .00000190 00000+0 00000+0 0 9993 2 14129 25.9123 219.5345 6010777 115.7182 316.6307 2.05868747295495 UOSAT 2 (UO-11) 1 14781U 84021B 26168.48985684 .00000893 00000+0 96474-4 0 9994 2 14781 97.8058 134.0610 0007687 171.2729 188.8624 14.90783772257179 LUSAT (LO-19) 1 20442U 90005G 26168.60057560 .00000080 00000+0 45223-4 0 9995 2 20442 98.8850 190.4176 0011141 199.8260 160.2493 14.34123292902459 EYESAT A (AO-27) 1 22825U 93061C 26168.13972332 .00000083 00000+0 48352-4 0 9997 2 22825 98.6881 235.5533 0009538 99.8912 260.3348 14.30942270706999 ITAMSAT (IO-26) 1 22826U 93061D 26168.11914999 .00000077 00000+0 45962-4 0 9998 2 22826 98.6828 235.4502 0010073 85.1350 275.0983 14.31369167707309 RADIO ROSTO (RS15) 1 23439U 94085A 26168.47073733 -.00000052 00000+0 -28183-3 0 9997 2 23439 64.8179 302.7576 0155956 3.8240 356.3838 11.27583456295932 JAS-2 (FO-29) 1 24278U 96046B 26168.53292174 -.00000001 00000+0 31612-4 0 9992 2 24278 98.5239 17.3577 0350906 95.5376 268.5887 13.53274425473216 TECHSAT 1B (GO-32) 1 25397U 98043D 26168.48584790 .00000035 00000+0 35404-4 0 9995 2 25397 99.0067 161.2520 0001079 161.9506 198.1711 14.24428440451372 ISS (ZARYA) 1 25544U 98067A 26168.51200967 .00010215 00000+0 19142-3 0 9991 2 25544 51.6331 298.4851 0004696 196.4176 163.6661 15.49281356571801 PCSAT (NO-44) 1 26931U 01043C 26168.50854178 .00000074 00000+0 58672-4 0 9992 2 26931 67.0505 243.4407 0006079 264.6457 95.3952 14.31956189290490 SAUDISAT 1C (SO-50) 1 27607U 02058C 26168.49245842 .00000788 00000+0 11042-3 0 9991 2 27607 64.5510 128.0407 0075265 262.4185 96.8368 14.83047547264500 CUTE-1 (CO-55) 1 27844U 03031E 26168.52891237 .00000222 00000+0 11503-3 0 9990 2 27844 98.6736 177.0834 0009564 176.9717 183.1521 14.24335893191721 CUBESAT XI-IV (CO-57) 1 27848U 03031J 26167.95527530 .00000197 00000+0 10575-3 0 9991 2 27848 98.6766 176.2299 0009009 197.6805 162.4061 14.23620738191347 MOZHAETS 4 (RS22) 1 27939U 03042A 26168.62445191 .00000586 00000+0 98587-4 0 9993 2 27939 98.3462 352.9952 0009934 268.3409 178.7664 14.73467259215618 CUBESAT XI-V 1 28895U 05043F 26167.38340975 .00001200 00000+0 19649-3 0 9999 2 28895 98.2985 322.9884 0013585 203.3717 156.6874 14.72629782101632 CUTE-1.7+APD II (CO-65) 1 32785U 08021C 26168.58022875 .00003800 00000+0 24139-3 0 9998 2 32785 97.8273 150.0069 0009710 37.7715 322.4193 15.09453458985258 SEEDS II (CO-66) 1 32791U 08021J 26168.52727107 .00014659 00000+0 46558-3 0 9992 2 32791 97.7515 166.4411 0001013 2.1401 357.9844 15.32761122987345 YUBILEINY (RS30) 1 32953U 08025A 26168.58133053 .00000066 00000+0 40397-3 0 9995 2 32953 82.5036 355.1949 0018851 313.0438 46.9063 12.43179662819747 KKS-1 (KISEKI) 1 33499U 09002H 26168.52646297 .00001036 00000+0 13397-3 0 9998 2 33499 98.1189 90.9741 0006508 294.5734 65.4800 14.83124755936246 SWISSCUBE 1 35932U 09051B 26168.30549632 .00000774 00000+0 16253-3 0 9999 2 35932 98.4035 76.1959 0005970 202.6029 157.4910 14.62481763889174 BEESAT-1 1 35933U 09051C 26168.58880448 .00000640 00000+0 13834-3 0 9997 2 35933 98.3963 76.1188 0004244 215.3453 144.7466 14.61721012889249 ITUPSAT1 1 35935U 09051E 26167.68937775 .00000621 00000+0 13815-3 0 9993 2 35935 98.4049 74.3980 0006243 235.8160 124.2448 14.60440072888661 XIWANG-1 (HOPE-1) 1 36122U 09072B 26168.62387877 -.00000108 00000+0 -16707-3 0 9997 2 36122 100.4029 122.4495 0006864 230.5290 129.5217 13.16438119793063 O/OREOS (USA 219) 1 37224U 10062C 26168.12918379 .00001739 00000+0 16980-3 0 9996 2 37224 71.9713 80.4709 0012545 63.1875 297.0577 14.93744242116637 JUGNU 1 37839U 11058B 26168.10338876 .00000397 00000+0 67695-4 0 9999 2 37839 19.9617 308.9384 0018637 75.2680 81.6214 14.13776752759010 SRMSAT 1 37841U 11058D 26168.08915448 .00000356 00000+0 49079-4 0 9996 2 37841 19.9723 60.0600 0011790 202.5356 269.2197 14.11575544757809 STRAND-1 1 39090U 13009E 26168.40411720 .00000200 00000+0 81523-4 0 9990 2 39090 98.3921 348.6331 0007740 224.5374 135.5192 14.37163347697094 ZACUBE-1 (TSHEPISOSAT) 1 39417U 13066B 26168.47394244 .00002365 00000+0 18618-3 0 9992 2 39417 97.8080 130.8124 0040842 246.6808 113.0116 15.01189935680772 GOMX-1 1 39430U 13066Q 26168.59452598 .00001519 00000+0 23255-3 0 9990 2 39430 97.6476 9.0316 0130181 76.2293 285.3363 14.69461645669975 CUBEBUG-2 (LO-74) 1 39440U 13066AA 26168.39811620 .00003810 00000+0 35342-3 0 9990 2 39440 97.8909 117.3771 0058377 28.4148 332.0233 14.93763127677029 FUNCUBE-1 (AO-73) 1 39444U 13066AE 26168.45428207 .00005112 00000+0 31861-3 0 9995 2 39444 97.8279 139.9057 0035653 199.8844 160.0997 15.09493115679706 UWE-3 1 39446U 13066AG 26168.41617328 .00003433 00000+0 29686-3 0 9993 2 39446 97.8697 124.4914 0047505 320.3944 39.3810 14.97025793677613 UNISAT-6 1 40012U 14033C 26168.40223077 .00001884 00000+0 20612-3 0 9990 2 40012 97.7880 321.1100 0046246 68.6169 291.9973 14.88246960646198 DUCHIFAT-1 1 40021U 14033M 26168.08560661 .00086906 00000+0 89449-3 0 9998 2 40021 98.0464 227.2320 0003017 117.8101 242.3462 15.64575667655739 QB50P1 1 40025U 14033R 26168.54551088 .00005822 00000+0 28772-3 0 9996 2 40025 98.0960 179.7168 0007822 213.7845 146.2890 15.18264690653087 LILACSAT-2 1 40908U 15049K 26168.59475200 .00014291 00000+0 24365-3 0 9994 2 40908 97.4639 205.4519 0005521 242.9611 117.1078 15.51456279595813 FOX-1A (AO-85) 1 40967U 15058D 26168.55378445 .00001836 00000+0 17296-3 0 9994 2 40967 64.7761 277.8447 0130494 56.4400 304.9093 14.90971096113625 CAS-2T & KS-1Q 1 41847U 16066G 26168.10210262 .00001464 00000+0 21211-3 0 9994 2 41847 98.3822 243.8394 0342790 129.7362 233.4574 14.44694196504786 RADFXSAT (FOX-1B) 1 43017U 17073E 26168.60486874 .00005679 00000+0 24962-3 0 9991 2 43017 97.4696 35.8108 0149538 327.7970 31.4193 15.12722439465459 DIWATA-2B 1 43678U 18084H 26168.57000237 .00001830 00000+0 15047-3 0 9997 2 43678 98.1177 4.7946 0012487 168.8942 191.2559 15.00453171416272 ES'HAIL 2 1 43700U 18090A 26167.76128994 .00000141 00000+0 00000+0 0 9994 2 43700 0.0175 13.0563 0001608 111.1044 80.7103 1.00270422 27673 FOX-1CLIFF (AO-95) 1 43770U 18099N 26168.40539693 .00008770 00000+0 33623-3 0 9991 2 43770 97.4379 228.6506 0007951 357.1065 3.0126 15.26715554413258 ITASAT 1 43786U 18099AE 26168.08754568 .00005482 00000+0 26431-3 0 9998 2 43786 97.4026 219.6012 0012100 0.6685 359.4564 15.19055872412891 JY1SAT (JO-97) 1 43803U 18099AX 26168.16099664 .00012621 00000+0 39004-3 0 9999 2 43803 97.4126 230.9950 0004332 262.3288 97.7462 15.33652151413623 UWE-4 1 43880U 18111E 26168.34456339 .00026096 00000+0 53314-3 0 9996 2 43880 97.5856 96.7426 0005448 341.8769 18.2285 15.46133218410801 TIANYAN 01 1 44881U 19093C 26168.58325199 .00000537 00000+0 66645-4 0 9997 2 44881 97.7537 240.8057 0015131 85.6415 274.6529 14.86520760351475 RS-44 & BREEZE-KM R/B 1 44909U 19096E 26168.55246389 .00000013 00000+0 73756-6 0 9993 2 44909 82.5218 339.4621 0218183 143.3147 218.3120 12.79748854302397 SALSAT 1 46495U 20068K 26168.53797512 .00006219 00000+0 21821-3 0 9990 2 46495 97.8847 171.6239 0008040 306.6544 53.3955 15.29803905315418 XW-3 (CAS-9) 1 50466U 21131B 26168.60996472 .00000369 00000+0 12758-3 0 9998 2 50466 98.4989 260.9973 0005409 95.9020 264.2786 14.41357924235172 GREENCUBE (IO-117) 1 53109U 22080E 26164.29338770 -.00000003 00000+0 00000+0 0 9990 2 53109 70.1444 299.5995 0008910 290.4576 69.5127 6.42583230 91811 UMKA 1 (RS40S) 1 57172U 23091G 26168.55449129 .00004785 00000+0 21956-3 0 9998 2 57172 97.5048 227.2503 0014244 116.5284 243.7414 15.20822088164068 CUBESX-HSE 3 (RS42S) 1 57178U 23091N 26168.56594006 .00010593 00000+0 35300-3 0 9992 2 57178 97.5089 234.1579 0012032 93.6427 266.6190 15.31223482164482 MONITOR-3 (RS58S) 1 57180U 23091Q 26168.59126509 .00008883 00000+0 32860-3 0 9994 2 57180 97.5080 232.0402 0013102 99.5742 260.6978 15.27848846164358 MONITOR-4 (RS57S) 1 57182U 23091S 26168.57029959 .00008684 00000+0 32050-3 0 9995 2 57182 97.5074 231.9905 0013093 100.0034 260.2683 15.27934246164359 MONITOR-2 (RS39S) 1 57184U 23091U 26168.57620598 .00004261 00000+0 20706-3 0 9995 2 57184 97.5070 226.8566 0012755 109.8954 250.3656 15.18913614164014 SVYATOBOR 1 (RS60S) 1 57187U 23091X 26168.51817445 .00007438 00000+0 28627-3 0 9990 2 57187 97.5087 232.3369 0010869 93.4386 266.8096 15.26620149164364 VIZARD-METEO (RS38S) 1 57189U 23091Z 26168.60363230 .00014218 00000+0 40680-3 0 9997 2 57189 97.5090 238.0972 0008234 76.3939 283.8221 15.36037975164752 POLYTECH-UNIVERSE 3 (R*) 1 57191U 23091AB 26168.60335540 .00003917 00000+0 18923-3 0 9992 2 57191 97.5045 226.3880 0016887 125.4239 234.8576 15.19116511164018 UTMN 2 (RS27S) 1 57203U 23091AP 26168.58332005 .00010571 00000+0 34355-3 0 9997 2 57203 97.5085 235.8097 0009240 82.6541 277.5750 15.32060607164608 KUZGTU 1 (RS47S) 1 57217U 23091AV 26168.42655446 .00008893 00000+0 30945-3 0 9997 2 57217 97.5062 232.9090 0012293 97.3043 262.9595 15.29865909164419 SONATE-2 1 59112U 24043Q 26168.39510587 .00033446 00000+0 43430-3 0 9998 2 59112 97.5537 318.8032 0007054 194.9241 165.1808 15.58731492127922 MESAT1 1 60209U 24125G 26168.55435910 .00045262 00000+0 49310-3 0 9994 2 60209 97.2283 26.0449 0009608 202.4554 157.6286 15.63233272109627 OOV-CUBE (TUBSAT-30) 1 60240U 24128F 26168.58778461 .00001484 00000+0 12396-3 0 9998 2 60240 61.9933 224.1762 0044589 133.8534 226.6256 15.02774856106175 COLIBRI-S (RS67S) 1 61746U 24199M 26168.57904515 .00017547 00000+0 34007-3 0 9998 2 61746 97.2988 42.4366 0006263 277.1190 82.9348 15.47738618137474 HORS 3 (RS81S) 1 61753U 24199U 26168.60430521 .00030368 00000+0 45336-3 0 9994 2 61753 97.2971 44.4533 0003758 275.9061 84.1765 15.54997906137620 HORS 4 (RS82S) 1 61754U 24199V 26168.49948107 .00039050 00000+0 48866-3 0 9994 2 61754 97.2916 45.5499 0003102 256.5252 103.5659 15.59703278137690 SIT-2086 1 61764U 24199AF 26168.58305606 .00029845 00000+0 47707-3 0 9990 2 61764 97.2927 44.9067 0004596 248.6491 111.4272 15.53108590134496 HYPERVIEW 1G (RS66S) 1 61772U 24199AP 26168.31661712 .00116045 00000+0 74599-3 0 9991 2 61772 97.2861 48.0422 0003758 218.3555 141.7444 15.75864545134698 ALTAIR (RS65S) 1 61779U 24199AW 26168.56772267 .00006536 00000+0 18235-3 0 9991 2 61779 97.3023 37.9160 0011092 309.7220 50.3046 15.37027290137171 ASRTU-1 (AO-123) 1 61781U 24199AY 26168.62111758 .00006159 00000+0 17944-3 0 9990 2 61781 97.2995 37.2879 0012277 312.4202 47.6002 15.35680780133992 SAMSAT-IONOSPHERE (RS7*) 1 61784U 24199BB 26168.57336194 .00038922 00000+0 52576-3 0 9993 2 61784 97.2939 44.4696 0005896 274.5591 85.4992 15.57652334137628 RTU MIREA 1 (RS51S) 1 61785U 24199BC 26168.59691757 .00046433 00000+0 54947-3 0 9995 2 61785 97.2927 45.3277 0005547 265.6338 94.4286 15.61124879134530 TEVEL2-4 1 63213U 25052D 26167.98658141 .00016047 00000+0 48034-3 0 9992 2 63213 97.3904 64.3780 0004859 103.4475 256.7310 15.34605865 70089 TEVEL2-5 1 63214U 25052E 26167.94184661 .00015322 00000+0 46132-3 0 9992 2 63214 97.3902 64.2812 0004796 104.9018 255.2757 15.34430962 70074 TEVEL2-6 1 63215U 25052F 26168.60631330 .00014604 00000+0 44010-3 0 9992 2 63215 97.3904 64.9306 0004730 104.3136 255.8632 15.34413605 70179 TEVEL2-1 1 63217U 25052H 26167.98311732 .00015254 00000+0 46759-3 0 9999 2 63217 97.3878 63.9315 0004776 114.0246 246.1497 15.33862790 70062 TEVEL2-3 1 63218U 25052J 26167.97776758 .00015147 00000+0 46354-3 0 9994 2 63218 97.3882 63.9480 0004723 114.1810 245.9927 15.33918227 70063 TEVEL2-2 1 63219U 25052K 26167.65724747 .00014434 00000+0 44263-3 0 9996 2 63219 97.3883 63.6082 0004715 115.1533 245.0199 15.33861744 70012 TEVEL2-9 1 63237U 25052AD 26168.61379562 .00012855 00000+0 41917-3 0 9992 2 63237 97.3941 63.9387 0007848 129.6989 230.4946 15.31908741 70096 TEVEL2-7 1 63238U 25052AE 26168.45878721 .00012346 00000+0 40647-3 0 9990 2 63238 97.3942 63.7002 0007894 130.4591 229.7340 15.31607306 70069 TEVEL2-8 1 63239U 25052AF 26167.68303146 .00012386 00000+0 40821-3 0 9997 2 63239 97.3946 62.9032 0007849 133.0156 227.1744 15.31573973 69941 INNOSAT 16 (RS92S7) 1 64878U 25155C 26168.59240886 .00004636 00000+0 18589-3 0 9998 2 64878 97.4567 135.7189 0010612 173.8720 186.2649 15.25459879 80734 GEOSCAN 6 (RS92S6) 1 64879U 25155D 26168.57394075 .00008196 00000+0 28319-3 0 9994 2 64879 97.4560 137.1273 0008402 161.1935 198.9617 15.30157732 80824 GEOSCAN 1 (RS92S1) 1 64880U 25155E 26168.57623950 .00008758 00000+0 29694-3 0 9994 2 64880 97.4556 137.2779 0008335 160.9060 199.2495 15.30753172 80833 239ALFEROV (RS61S) 1 64881U 25155F 26168.61060364 .00011520 00000+0 36396-3 0 9992 2 64881 97.4557 137.8753 0008096 157.7365 202.4230 15.32948256 80878 GEOSCAN 2 (RS92S2) 1 64890U 25155Q 26168.56985524 .00008770 00000+0 29488-3 0 9997 2 64890 97.4555 137.4241 0008145 148.3201 211.8532 15.31024573 80846 GEOSCAN 5 (RS92S5) 1 64891U 25155R 26168.59954065 .00011672 00000+0 36520-3 0 9997 2 64891 97.4550 138.0018 0006811 161.3319 198.8174 15.33265912 80880 GEOSCAN 4 (RS92S4) 1 64892U 25155S 26168.58369169 .00011754 00000+0 36596-3 0 9996 2 64892 97.4553 138.0344 0006868 160.9364 199.2136 15.33420761 80881 GEOSCAN 3 (RS92S3) 1 64893U 25155T 26168.58393499 .00014737 00000+0 43021-3 0 9995 2 64893 97.4541 138.4654 0006833 159.2292 200.9230 15.35407032 80917 INNOSAT 3 (RS92S0) 1 64894U 25155U 26168.57188913 .00029779 00000+0 65655-3 0 9997 2 64894 97.4490 140.0770 0006599 150.1327 210.0298 15.43848626 81023 KNACKSAT-2 1 67683U 98067XZ 26168.60673955 .00040994 00000+0 49993-3 0 9996 2 67683 51.6314 292.3670 0009087 217.1010 142.9356 15.60014370 20343